| time (UTC) | temp C | wind direction | speed KPH | gust KPH | rain 1hr cm | rain 24hr cm | rain mn cm | humidity % | barometer mb |
| 20260507224007 | 12 | 186 | 0.0 | 6.4 | 0.00 | 0.05 | 0.00 | 56 | 1012.1 |
| 20260507223503 | 12 | 349 | 0.0 | 6.4 | 0.00 | 0.05 | 0.00 | 57 | 1012.1 |
| 20260507223002 | 12 | 306 | 1.6 | 6.4 | 0.00 | 0.05 | 0.00 | 57 | 1012.1 |
| 20260507222501 | 12 | 144 | 0.0 | 6.4 | 0.00 | 0.05 | 0.00 | 58 | 1012.0 |
| 20260507222059 | 12 | 196 | 1.6 | 6.4 | 0.00 | 0.05 | 0.00 | 59 | 1011.9 |
| 20260507221559 | 12 | 178 | 0.0 | 4.8 | 0.00 | 0.05 | 0.00 | 59 | 1011.9 |
| 20260507221057 | 12 | 186 | 0.0 | 4.8 | 0.00 | 0.05 | 0.00 | 59 | 1011.8 |
| 20260507220558 | 13 | 320 | 1.6 | 4.8 | 0.00 | 0.05 | 0.00 | 60 | 1011.9 |
| 20260507215555 | 13 | 360 | 0.0 | 4.8 | 0.00 | 0.05 | 0.05 | 61 | 1011.9 |
| 20260507215055 | 13 | 67 | 0.0 | 4.8 | 0.00 | 0.05 | 0.05 | 62 | 1011.9 |
| 20260507214600 | 13 | 59 | 1.6 | 4.8 | 0.00 | 0.05 | 0.05 | 63 | 1012.0 |
| 20260507214055 | 13 | 200 | 0.0 | 3.2 | 0.00 | 0.05 | 0.05 | 63 | 1011.9 |
| 20260507213559 | 13 | 192 | 0.0 | 4.8 | 0.00 | 0.05 | 0.05 | 63 | 1011.9 |
| 20260507213055 | 14 | 15 | 0.0 | 4.8 | 0.00 | 0.05 | 0.05 | 63 | 1011.9 |
| 20260507212557 | 14 | 252 | 0.0 | 4.8 | 0.00 | 0.05 | 0.05 | 63 | 1012.0 |
| 20260507212054 | 14 | 275 | 0.0 | 4.8 | 0.00 | 0.05 | 0.05 | 63 | 1012.0 |
| 20260507211554 | 15 | 63 | 1.6 | 4.8 | 0.00 | 0.05 | 0.05 | 63 | 1012.0 |
| 20260507211054 | 15 | 209 | 0.0 | 12.9 | 0.00 | 0.05 | 0.05 | 63 | 1011.9 |
| 20260507210558 | 15 | 323 | 0.0 | 17.7 | 0.00 | 0.05 | 0.05 | 63 | 1012.0 |
| 20260507210055 | 15 | 108 | 8.0 | 17.7 | 0.00 | 0.05 | 0.05 | 63 | 1012.0 |
| 20260507205553 | 15 | 65 | 1.6 | 16.1 | 0.00 | 0.05 | 0.05 | 63 | 1012.0 |
| 20260507205053 | 15 | 60 | 1.6 | 9.7 | 0.00 | 0.05 | 0.05 | 63 | 1011.9 |
| 20260507204558 | 15 | 5 | 1.6 | 6.4 | 0.00 | 0.05 | 0.05 | 62 | 1011.9 |
| 20260507204054 | 15 | 10 | 3.2 | 6.4 | 0.00 | 0.05 | 0.05 | 63 | 1012.0 |
| 20260507203554 | 15 | 42 | 3.2 | 6.4 | 0.00 | 0.05 | 0.05 | 64 | 1012.1 |
| 20260507203052 | 15 | 26 | 1.6 | 6.4 | 0.00 | 0.05 | 0.05 | 65 | 1012.1 |
| 20260507202555 | 15 | 355 | 1.6 | 9.7 | 0.00 | 0.05 | 0.05 | 65 | 1012.1 |
| 20260507202051 | 15 | 360 | 3.2 | 9.7 | 0.00 | 0.05 | 0.05 | 65 | 1012.1 |
| 20260507201557 | 15 | 67 | 1.6 | 11.3 | 0.00 | 0.05 | 0.05 | 65 | 1012.1 |
| 20260507201051 | 16 | 72 | 4.8 | 14.5 | 0.00 | 0.05 | 0.05 | 65 | 1012.1 |
| 20260507200551 | 16 | 91 | 1.6 | 14.5 | 0.00 | 0.05 | 0.05 | 65 | 1012.1 |
| 20260507200054 | 16 | 94 | 3.2 | 14.5 | 0.00 | 0.10 | 0.05 | 65 | 1012.1 |
| 20260507195551 | 16 | 111 | 3.2 | 19.3 | 0.00 | 0.10 | 0.05 | 65 | 1012.0 |
| 20260507195051 | 16 | 96 | 8.0 | 19.3 | 0.00 | 0.10 | 0.05 | 65 | 1012.0 |
| 20260507194551 | 16 | 75 | 9.7 | 17.7 | 0.00 | 0.10 | 0.05 | 65 | 1012.0 |
| 20260507194051 | 16 | 70 | 3.2 | 14.5 | 0.00 | 0.10 | 0.05 | 65 | 1012.0 |
| 20260507193551 | 16 | 107 | 4.8 | 14.5 | 0.00 | 0.10 | 0.05 | 65 | 1011.9 |
| 20260507193053 | 16 | 113 | 6.4 | 19.3 | 0.00 | 0.10 | 0.05 | 65 | 1011.9 |
| 20260507192550 | 16 | 107 | 8.0 | 19.3 | 0.00 | 0.10 | 0.05 | 65 | 1011.9 |
| 20260507192052 | 16 | 115 | 9.7 | 17.7 | 0.00 | 0.10 | 0.05 | 65 | 1011.8 |
| 20260507191555 | 16 | 98 | 11.3 | 17.7 | 0.00 | 0.10 | 0.05 | 65 | 1011.9 |
| 20260507191049 | 16 | 104 | 6.4 | 17.7 | 0.00 | 0.10 | 0.05 | 65 | 1011.7 |
| 20260507190549 | 16 | 83 | 9.7 | 17.7 | 0.00 | 0.10 | 0.05 | 65 | 1011.7 |
| 20260507190053 | 17 | 107 | 9.7 | 17.7 | 0.00 | 0.10 | 0.05 | 65 | 1011.8 |
| 20260507185549 | 17 | 90 | 9.7 | 19.3 | 0.00 | 0.10 | 0.05 | 65 | 1011.9 |
| 20260507185048 | 17 | 113 | 9.7 | 19.3 | 0.00 | 0.10 | 0.05 | 64 | 1011.7 |
| 20260507184552 | 17 | 136 | 4.8 | 20.9 | 0.00 | 0.10 | 0.05 | 64 | 1011.7 |
| 20260507184049 | 17 | 69 | 6.4 | 20.9 | 0.00 | 0.10 | 0.05 | 65 | 1011.7 |
| 20260507183548 | 17 | 105 | 6.4 | 19.3 | 0.00 | 0.10 | 0.05 | 65 | 1011.8 |
| 20260507183048 | 17 | 107 | 6.4 | 19.3 | 0.00 | 0.10 | 0.05 | 65 | 1011.7 |
| 20260507182547 | 17 | 69 | 8.0 | 17.7 | 0.00 | 0.10 | 0.05 | 65 | 1011.7 |
| 20260507182048 | 18 | 60 | 8.0 | 17.7 | 0.00 | 0.10 | 0.05 | 65 | 1011.6 |
| 20260507181556 | 18 | 35 | 8.0 | 17.7 | 0.00 | 0.10 | 0.05 | 64 | 1011.7 |
| 20260507181047 | 18 | 69 | 4.8 | 19.3 | 0.00 | 0.10 | 0.05 | 64 | 1011.6 |
| 20260507180546 | 18 | 74 | 8.0 | 19.3 | 0.00 | 0.10 | 0.05 | 62 | 1011.6 |
| 20260507180047 | 18 | 59 | 8.0 | 19.3 | 0.00 | 0.10 | 0.05 | 59 | 1011.5 |
| 20260507175548 | 19 | 61 | 1.6 | 9.7 | 0.00 | 0.10 | 0.05 | 59 | 1011.4 |
| 20260507175046 | 19 | 60 | 1.6 | 6.4 | 0.00 | 0.10 | 0.05 | 58 | 1011.4 |
| 20260507174553 | 20 | 51 | 3.2 | 4.8 | 0.00 | 0.10 | 0.05 | 57 | 1011.2 |
| 20260507174046 | 20 | 42 | 1.6 | 4.8 | 0.00 | 0.10 | 0.05 | 55 | 1011.2 |
| 20260507173546 | 20 | 323 | 1.6 | 6.4 | 0.00 | 0.10 | 0.05 | 54 | 1011.2 |
| 20260507173047 | 20 | 360 | 1.6 | 6.4 | 0.00 | 0.10 | 0.05 | 53 | 1011.2 |
| 20260507172545 | 20 | 320 | 3.2 | 8.0 | 0.00 | 0.10 | 0.05 | 52 | 1011.1 |
| 20260507172044 | 21 | 321 | 3.2 | 8.0 | 0.00 | 0.10 | 0.05 | 52 | 1011.1 |
| 20260507171545 | 21 | 337 | 3.2 | 8.0 | 0.00 | 0.10 | 0.05 | 52 | 1011.0 |
| 20260507171045 | 21 | 281 | 3.2 | 8.0 | 0.00 | 0.10 | 0.05 | 52 | 1011.0 |
| 20260507170545 | 21 | 340 | 3.2 | 8.0 | 0.00 | 0.10 | 0.05 | 52 | 1010.9 |
| 20260507170050 | 21 | 331 | 3.2 | 8.0 | 0.00 | 0.10 | 0.05 | 52 | 1010.9 |
| 20260507165544 | 21 | 331 | 1.6 | 9.7 | 0.00 | 0.10 | 0.05 | 52 | 1011.0 |
| 20260507165044 | 21 | 5 | 4.8 | 9.7 | 0.00 | 0.10 | 0.05 | 52 | 1011.0 |
| 20260507164544 | 21 | 347 | 3.2 | 9.7 | 0.00 | 0.10 | 0.05 | 52 | 1010.9 |
| 20260507164049 | 21 | 340 | 4.8 | 9.7 | 0.00 | 0.10 | 0.05 | 53 | 1010.9 |
| 20260507163544 | 20 | 344 | 4.8 | 9.7 | 0.00 | 0.10 | 0.05 | 53 | 1010.9 |
| 20260507163044 | 20 | 334 | 3.2 | 9.7 | 0.00 | 0.10 | 0.05 | 55 | 1010.9 |
| 20260507162543 | 20 | 296 | 0.0 | 8.0 | 0.00 | 0.10 | 0.05 | 54 | 1011.0 |
| 20260507162044 | 20 | 282 | 1.6 | 6.4 | 0.00 | 0.10 | 0.05 | 56 | 1011.0 |
| 20260507161541 | 20 | 203 | 0.0 | 9.7 | 0.00 | 0.10 | 0.05 | 55 | 1011.1 |
| 20260507161041 | 20 | 329 | 1.6 | 9.7 | 0.00 | 0.10 | 0.05 | 56 | 1011.2 |
| 20260507160541 | 20 | 269 | 3.2 | 9.7 | 0.00 | 0.10 | 0.05 | 55 | 1011.3 |
| 20260507160041 | 20 | 350 | 3.2 | 8.0 | 0.00 | 0.10 | 0.05 | 55 | 1011.2 |
| 20260507155540 | 20 | 231 | 0.0 | 8.0 | 0.00 | 0.10 | 0.05 | 56 | 1011.2 |
| 20260507155040 | 20 | 196 | 0.0 | 11.3 | 0.00 | 0.10 | 0.05 | 57 | 1011.2 |
| 20260507154542 | 20 | 227 | 6.4 | 11.3 | 0.00 | 0.10 | 0.05 | 56 | 1011.2 |
| 20260507154040 | 20 | 266 | 1.6 | 8.0 | 0.00 | 0.10 | 0.05 | 57 | 1011.3 |
| 20260507153541 | 20 | 298 | 1.6 | 9.7 | 0.00 | 0.10 | 0.05 | 57 | 1011.3 |
| 20260507153048 | 21 | 228 | 3.2 | 9.7 | 0.00 | 0.10 | 0.05 | 57 | 1011.3 |
| 20260507152538 | 20 | 334 | 3.2 | 9.7 | 0.00 | 0.10 | 0.05 | 56 | 1011.3 |
| 20260507152038 | 20 | 109 | 1.6 | 6.4 | 0.00 | 0.10 | 0.05 | 56 | 1011.3 |
| 20260507151537 | 20 | 246 | 1.6 | 4.8 | 0.00 | 0.10 | 0.05 | 56 | 1011.4 |
| 20260507151037 | 20 | 346 | 1.6 | 4.8 | 0.00 | 0.10 | 0.05 | 58 | 1011.4 |
| 20260507150538 | 20 | 337 | 1.6 | 6.4 | 0.00 | 0.10 | 0.05 | 58 | 1011.5 |
| 20260507150040 | 21 | 263 | 1.6 | 6.4 | 0.00 | 0.10 | 0.05 | 57 | 1011.4 |
| 20260507145537 | 21 | 272 | 1.6 | 6.4 | 0.00 | 0.10 | 0.05 | 55 | 1011.5 |
| 20260507145036 | 21 | 317 | 1.6 | 8.0 | 0.00 | 0.10 | 0.05 | 55 | 1011.5 |
| 20260507144535 | 21 | 238 | 0.0 | 11.3 | 0.00 | 0.10 | 0.05 | 56 | 1011.5 |
| 20260507144037 | 20 | 202 | 3.2 | 12.9 | 0.00 | 0.10 | 0.05 | 58 | 1011.7 |
| 20260507143535 | 20 | 268 | 6.4 | 12.9 | 0.00 | 0.10 | 0.05 | 56 | 1011.8 |
| 20260507143036 | 20 | 5 | 6.4 | 12.9 | 0.00 | 0.10 | 0.05 | 55 | 1011.8 |
| 20260507142534 | 21 | 336 | 3.2 | 11.3 | 0.00 | 0.10 | 0.05 | 55 | 1011.7 |
| 20260507142033 | 21 | 287 | 1.6 | 20.9 | 0.00 | 0.10 | 0.05 | 58 | 1011.8 |
| 20260507141534 | 21 | 36 | 3.2 | 20.9 | 0.00 | 0.10 | 0.05 | 58 | 1011.8 |
| 20260507141034 | 21 | 341 | 0.0 | 11.3 | 0.00 | 0.10 | 0.05 | 54 | 1011.9 |
| 20260507140534 | 21 | 333 | 1.6 | 17.7 | 0.00 | 0.10 | 0.05 | 52 | 1012.0 |
| 20260507140033 | 21 | 213 | 4.8 | 17.7 | 0.00 | 0.10 | 0.05 | 56 | 1012.0 |
| 20260507135534 | 21 | 261 | 3.2 | 14.5 | 0.00 | 0.10 | 0.05 | 56 | 1012.0 |
| 20260507135031 | 21 | 271 | 3.2 | 11.3 | 0.00 | 0.10 | 0.05 | 56 | 1012.0 |
| 20260507134534 | 20 | 177 | 1.6 | 11.3 | 0.00 | 0.10 | 0.05 | 58 | 1012.0 |
| 20260507134030 | 20 | 234 | 0.0 | 8.0 | 0.00 | 0.10 | 0.05 | 56 | 1012.2 |
| 20260507133531 | 20 | 227 | 3.2 | 9.7 | 0.00 | 0.10 | 0.05 | 56 | 1012.2 |
| 20260507133031 | 20 | 76 | 4.8 | 9.7 | 0.00 | 0.10 | 0.05 | 57 | 1012.2 |
| 20260507132530 | 20 | 316 | 1.6 | 9.7 | 0.00 | 0.10 | 0.05 | 57 | 1012.2 |
| 20260507132029 | 20 | 269 | 4.8 | 9.7 | 0.00 | 0.10 | 0.05 | 56 | 1012.3 |
| 20260507131536 | 20 | 276 | 1.6 | 12.9 | 0.00 | 0.10 | 0.05 | 57 | 1012.3 |
| 20260507131030 | 20 | 249 | 1.6 | 14.5 | 0.00 | 0.10 | 0.05 | 54 | 1012.4 |
| 20260507130529 | 20 | 210 | 4.8 | 14.5 | 0.00 | 0.10 | 0.05 | 56 | 1012.5 |
| 20260507130029 | 20 | 231 | 6.4 | 16.1 | 0.00 | 0.10 | 0.05 | 55 | 1012.4 |
| 20260507125529 | 20 | 252 | 3.2 | 9.7 | 0.00 | 0.10 | 0.05 | 56 | 1012.4 |
| 20260507125028 | 20 | 179 | 3.2 | 12.9 | 0.00 | 0.10 | 0.05 | 56 | 1012.4 |
| 20260507124528 | 20 | 207 | 6.4 | 14.5 | 0.00 | 0.10 | 0.05 | 56 | 1012.4 |
| 20260507124028 | 21 | 207 | 6.4 | 14.5 | 0.00 | 0.10 | 0.05 | 55 | 1012.4 |
| 20260507123529 | 21 | 266 | 4.8 | 12.9 | 0.00 | 0.10 | 0.05 | 55 | 1012.3 |
| 20260507123028 | 21 | 263 | 0.0 | 16.1 | 0.00 | 0.10 | 0.05 | 53 | 1012.4 |
| 20260507122529 | 21 | 194 | 6.4 | 16.1 | 0.00 | 0.10 | 0.05 | 55 | 1012.4 |
| 20260507122026 | 21 | 192 | 3.2 | 16.1 | 0.00 | 0.10 | 0.05 | 55 | 1012.4 |
| 20260507121526 | 21 | 194 | 1.6 | 17.7 | 0.00 | 0.10 | 0.05 | 54 | 1012.4 |
| 20260507121025 | 21 | 228 | 6.4 | 17.7 | 0.00 | 0.10 | 0.05 | 56 | 1012.4 |
| 20260507120524 | 20 | 202 | 4.8 | 16.1 | 0.00 | 0.10 | 0.05 | 59 | 1012.5 |
| 20260507120037 | 20 | 221 | 6.4 | 16.1 | 0.00 | 0.10 | 0.05 | 58 | 1012.5 |
| 20260507115524 | 20 | 213 | 4.8 | 16.1 | 0.00 | 0.10 | 0.05 | 58 | 1012.5 |
| 20260507115024 | 20 | 225 | 6.4 | 16.1 | 0.00 | 0.10 | 0.05 | 59 | 1012.5 |
| 20260507114525 | 20 | 148 | 3.2 | 9.7 | 0.00 | 0.10 | 0.05 | 61 | 1012.5 |
| 20260507114024 | 20 | 203 | 4.8 | 12.9 | 0.00 | 0.10 | 0.05 | 64 | 1012.7 |
| 20260507113524 | 19 | 229 | 3.2 | 17.7 | 0.00 | 0.10 | 0.05 | 61 | 1012.7 |
| 20260507113024 | 19 | 244 | 6.4 | 17.7 | 0.00 | 0.10 | 0.05 | 62 | 1012.6 |
| 20260507112523 | 19 | 330 | 0.0 | 19.3 | 0.00 | 0.10 | 0.05 | 60 | 1012.7 |
| 20260507112023 | 20 | 130 | 6.4 | 19.3 | 0.00 | 0.10 | 0.05 | 61 | 1012.7 |
| 20260507111524 | 20 | 193 | 3.2 | 14.5 | 0.00 | 0.10 | 0.05 | 61 | 1012.8 |
| 20260507111022 | 20 | 253 | 4.8 | 12.9 | 0.00 | 0.10 | 0.05 | 59 | 1012.7 |
| 20260507110521 | 20 | 213 | 4.8 | 16.1 | 0.00 | 0.10 | 0.05 | 61 | 1012.7 |
| 20260507110021 | 20 | 202 | 8.0 | 16.1 | 0.00 | 0.10 | 0.05 | 60 | 1012.9 |
| 20260507105520 | 20 | 180 | 3.2 | 17.7 | 0.00 | 0.10 | 0.05 | 62 | 1012.8 |
| 20260507105020 | 20 | 106 | 1.6 | 17.7 | 0.00 | 0.10 | 0.05 | 62 | 1012.9 |
| 20260507104521 | 20 | 246 | 8.0 | 17.7 | 0.00 | 0.10 | 0.05 | 63 | 1013.0 |
| 20260507104019 | 20 | 186 | 3.2 | 14.5 | 0.00 | 0.10 | 0.05 | 64 | 1013.0 |
| 20260507103519 | 20 | 184 | 4.8 | 14.5 | 0.00 | 0.10 | 0.05 | 65 | 1013.1 |
| 20260507103017 | 19 | 185 | 3.2 | 12.9 | 0.00 | 0.10 | 0.05 | 64 | 1013.0 |
| 20260507102519 | 19 | 215 | 4.8 | 11.3 | 0.00 | 0.10 | 0.05 | 64 | 1013.0 |
| 20260507102016 | 19 | 203 | 3.2 | 11.3 | 0.00 | 0.10 | 0.05 | 65 | 1013.0 |
| 20260507101516 | 18 | 187 | 4.8 | 14.5 | 0.00 | 0.10 | 0.05 | 65 | 1013.2 |
| 20260507101015 | 18 | 215 | 3.2 | 14.5 | 0.00 | 0.10 | 0.05 | 64 | 1013.1 |
| 20260507100515 | 18 | 207 | 4.8 | 14.5 | 0.00 | 0.10 | 0.05 | 65 | 1013.1 |
| 20260507100014 | 18 | 223 | 4.8 | 14.5 | 0.00 | 0.10 | 0.05 | 65 | 1013.1 |
| 20260507095517 | 18 | 192 | 6.4 | 12.9 | 0.00 | 0.10 | 0.05 | 65 | 1013.2 |
| 20260507095015 | 18 | 209 | 4.8 | 9.7 | 0.00 | 0.10 | 0.05 | 65 | 1013.2 |
| 20260507094614 | 17 | 234 | 4.8 | 17.7 | 0.00 | 0.10 | 0.05 | 65 | 1013.3 |
| 20260507094014 | 18 | 254 | 4.8 | 17.7 | 0.00 | 0.10 | 0.05 | 65 | 1013.3 |
| 20260507093514 | 18 | 195 | 3.2 | 11.3 | 0.00 | 0.10 | 0.05 | 65 | 1013.2 |
| 20260507093014 | 18 | 232 | 3.2 | 11.3 | 0.00 | 0.10 | 0.05 | 65 | 1013.3 |
| 20260507092512 | 18 | 215 | 3.2 | 16.1 | 0.00 | 0.10 | 0.05 | 64 | 1013.4 |
| 20260507092011 | 18 | 255 | 8.0 | 19.3 | 0.00 | 0.10 | 0.05 | 65 | 1013.4 |
| 20260507091514 | 18 | 236 | 3.2 | 19.3 | 0.00 | 0.10 | 0.05 | 64 | 1013.4 |
| 20260507091011 | 18 | 231 | 6.4 | 14.5 | 0.00 | 0.10 | 0.05 | 64 | 1013.4 |
| 20260507090508 | 17 | 245 | 6.4 | 16.1 | 0.00 | 0.10 | 0.05 | 60 | 1013.4 |
| 20260507090009 | 16 | 219 | 6.4 | 16.1 | 0.00 | 0.10 | 0.05 | 59 | 1013.3 |
| 20260507085506 | 16 | 238 | 6.4 | 16.1 | 0.00 | 0.10 | 0.05 | 62 | 1013.4 |
| 20260507085006 | 16 | 267 | 4.8 | 16.1 | 0.00 | 0.10 | 0.05 | 63 | 1013.3 |
| 20260507084511 | 16 | 245 | 3.2 | 12.9 | 0.00 | 0.10 | 0.05 | 63 | 1013.3 |
| 20260507084005 | 16 | 234 | 3.2 | 16.1 | 0.00 | 0.10 | 0.05 | 63 | 1013.5 |
| 20260507083505 | 16 | 217 | 1.6 | 16.1 | 0.00 | 0.10 | 0.05 | 61 | 1013.5 |
| 20260507083004 | 16 | 261 | 3.2 | 9.7 | 0.00 | 0.10 | 0.05 | 58 | 1013.6 |
| 20260507082502 | 16 | 205 | 1.6 | 12.9 | 0.00 | 0.10 | 0.05 | 54 | 1013.4 |
| 20260507082103 | 15 | 207 | 6.4 | 12.9 | 0.00 | 0.10 | 0.05 | 53 | 1013.5 |
| 20260507081604 | 15 | 231 | 4.8 | 11.3 | 0.00 | 0.10 | 0.05 | 53 | 1013.4 |
| 20260507081100 | 15 | 241 | 4.8 | 11.3 | 0.00 | 0.10 | 0.05 | 51 | 1013.4 |
| 20260507080556 | 15 | 245 | 3.2 | 9.7 | 0.00 | 0.10 | 0.05 | 52 | 1013.4 |
| 20260507080100 | 15 | 262 | 1.6 | 8.0 | 0.00 | 0.10 | 0.05 | 51 | 1013.2 |
| 20260507075555 | 15 | 237 | 1.6 | 8.0 | 0.00 | 0.10 | 0.05 | 51 | 1013.3 |
| 20260507075054 | 15 | 194 | 1.6 | 8.0 | 0.00 | 0.10 | 0.05 | 51 | 1013.3 |
| 20260507074607 | 15 | 248 | 1.6 | 6.4 | 0.00 | 0.10 | 0.05 | 52 | 1013.3 |
| 20260507074054 | 15 | 258 | 1.6 | 6.4 | 0.00 | 0.10 | 0.05 | 53 | 1013.3 |
| 20260507073554 | 15 | 241 | 1.6 | 12.9 | 0.00 | 0.10 | 0.05 | 52 | 1013.2 |
| 20260507073053 | 15 | 253 | 3.2 | 12.9 | 0.00 | 0.10 | 0.05 | 52 | 1013.3 |
| 20260507072553 | 15 | 263 | 4.8 | 14.5 | 0.00 | 0.10 | 0.05 | 51 | 1013.3 |
| 20260507072052 | 15 | 236 | 4.8 | 14.5 | 0.00 | 0.10 | 0.05 | 50 | 1013.2 |
| 20260507071552 | 15 | 232 | 3.2 | 8.0 | 0.00 | 0.10 | 0.05 | 49 | 1013.2 |
| 20260507071051 | 15 | 284 | 3.2 | 8.0 | 0.00 | 0.10 | 0.05 | 49 | 1013.2 |
| 20260507070550 | 15 | 263 | 3.2 | 8.0 | 0.00 | 0.10 | 0.05 | 48 | 1013.2 |
| 20260507070049 | 15 | 261 | 1.6 | 11.3 | 0.00 | 0.10 | 0.05 | 47 | 1013.0 |
| 20260507065549 | 15 | 241 | 0.0 | 11.3 | 0.00 | 0.10 | 0.05 | 46 | 1013.0 |
| 20260507065047 | 15 | 238 | 4.8 | 11.3 | 0.00 | 0.10 | 0.05 | 44 | 1012.9 |
| 20260507064547 | 14 | 256 | 1.6 | 8.0 | 0.00 | 0.10 | 0.05 | 43 | 1012.9 |
| 20260507064047 | 14 | 259 | 3.2 | 11.3 | 0.00 | 0.10 | 0.05 | 42 | 1012.9 |
| 20260507063545 | 14 | 225 | 4.8 | 11.3 | 0.00 | 0.10 | 0.05 | 42 | 1013.0 |
| 20260507063045 | 14 | 236 | 1.6 | 8.0 | 0.00 | 0.10 | 0.05 | 41 | 1013.0 |
| 20260507062544 | 13 | 198 | 1.6 | 8.0 | 0.00 | 0.10 | 0.05 | 40 | 1012.9 |
| 20260507062046 | 13 | 132 | 1.6 | 11.3 | 0.00 | 0.10 | 0.05 | 40 | 1013.0 |
| 20260507061543 | 13 | 210 | 3.2 | 11.3 | 0.00 | 0.10 | 0.05 | 39 | 1013.0 |
| 20260507061044 | 13 | 212 | 4.8 | 14.5 | 0.00 | 0.10 | 0.05 | 40 | 1013.0 |
| 20260507060542 | 13 | 173 | 4.8 | 14.5 | 0.00 | 0.10 | 0.05 | 36 | 1013.0 |
| 20260507060047 | 13 | 211 | 8.0 | 14.5 | 0.00 | 0.10 | 0.05 | 32 | 1012.9 |
| 20260507055641 | 13 | 206 | 6.4 | 12.9 | 0.00 | 0.10 | 0.05 | 30 | 1012.9 |
| 20260507055042 | 13 | 177 | 4.8 | 11.3 | 0.00 | 0.10 | 0.05 | 29 | 1012.8 |
| 20260507054552 | 12 | 194 | 4.8 | 11.3 | 0.00 | 0.10 | 0.05 | 29 | 1012.7 |
| 20260507054039 | 12 | 204 | 4.8 | 9.7 | 0.00 | 0.10 | 0.05 | 31 | 1012.7 |
| 20260507053537 | 12 | 159 | 4.8 | 9.7 | 0.00 | 0.10 | 0.05 | 31 | 1012.7 |
| 20260507053036 | 12 | 169 | 4.8 | 9.7 | 0.00 | 0.10 | 0.05 | 31 | 1012.8 |
| 20260507052536 | 12 | 183 | 3.2 | 9.7 | 0.00 | 0.10 | 0.05 | 31 | 1012.8 |
| 20260507052035 | 12 | 181 | 4.8 | 9.7 | 0.00 | 0.10 | 0.05 | 31 | 1012.8 |
| 20260507051535 | 12 | 196 | 1.6 | 6.4 | 0.00 | 0.10 | 0.05 | 31 | 1012.8 |
| 20260507051034 | 12 | 194 | 1.6 | 6.4 | 0.00 | 0.10 | 0.05 | 32 | 1012.8 |
| 20260507050532 | 12 | 188 | 1.6 | 8.0 | 0.00 | 0.10 | 0.05 | 32 | 1012.8 |
| 20260507050131 | 12 | 211 | 3.2 | 8.0 | 0.00 | 0.10 | 0.05 | 32 | 1012.7 |
| 20260507045531 | 12 | 203 | 4.8 | 8.0 | 0.00 | 0.10 | 0.05 | 33 | 1012.7 |
| 20260507045029 | 12 | 190 | 3.2 | 6.4 | 0.00 | 0.10 | 0.05 | 33 | 1012.8 |
| 20260507044527 | 12 | 217 | 1.6 | 9.7 | 0.00 | 0.10 | 0.05 | 33 | 1012.7 |
| 20260507044026 | 12 | 186 | 1.6 | 9.7 | 0.00 | 0.10 | 0.05 | 33 | 1012.6 |
| 20260507043526 | 12 | 209 | 1.6 | 4.8 | 0.00 | 0.10 | 0.05 | 33 | 1012.6 |
| 20260507043025 | 12 | 159 | 1.6 | 4.8 | 0.00 | 0.10 | 0.05 | 33 | 1012.6 |
| 20260507042525 | 12 | 175 | 0.0 | 6.4 | 0.00 | 0.10 | 0.05 | 33 | 1012.4 |
| 20260507042024 | 12 | 153 | 1.6 | 11.3 | 0.00 | 0.10 | 0.05 | 33 | 1012.4 |
| 20260507041523 | 12 | 219 | 3.2 | 11.3 | 0.00 | 0.10 | 0.05 | 33 | 1012.3 |
| 20260507041022 | 12 | 180 | 3.2 | 11.3 | 0.00 | 0.10 | 0.05 | 33 | 1012.3 |
| 20260507040523 | 12 | 173 | 0.0 | 6.4 | 0.00 | 0.10 | 0.05 | 33 | 1012.2 |
| 20260507040022 | 12 | 178 | 0.0 | 8.0 | 0.00 | 0.10 | 0.05 | 33 | 1012.2 |
| 20260507035521 | 12 | 188 | 3.2 | 8.0 | 0.00 | 0.10 | 0.05 | 33 | 1012.2 |
| 20260507035022 | 12 | 189 | 1.6 | 6.4 | 0.00 | 0.10 | 0.05 | 34 | 1012.2 |
| 20260507034521 | 12 | 201 | 3.2 | 8.0 | 0.00 | 0.10 | 0.05 | 34 | 1012.1 |
| 20260507034021 | 12 | 190 | 1.6 | 8.0 | 0.00 | 0.10 | 0.05 | 34 | 1012.1 |
| 20260507033521 | 12 | 192 | 3.2 | 8.0 | 0.00 | 0.10 | 0.05 | 34 | 1012.0 |
| 20260507033023 | 12 | 170 | 0.0 | 4.8 | 0.00 | 0.10 | 0.05 | 34 | 1012.0 |
| 20260507032520 | 12 | 181 | 0.0 | 4.8 | 0.00 | 0.10 | 0.05 | 34 | 1012.0 |
| 20260507032023 | 12 | 163 | 0.0 | 3.2 | 0.00 | 0.10 | 0.05 | 34 | 1012.0 |
| 20260507031519 | 12 | 128 | 0.0 | 3.2 | 0.00 | 0.10 | 0.05 | 34 | 1012.0 |
| 20260507031022 | 12 | 171 | 0.0 | 3.2 | 0.00 | 0.10 | 0.05 | 35 | 1011.9 |
| 20260507030520 | 12 | 150 | 0.0 | 4.8 | 0.00 | 0.10 | 0.05 | 35 | 1012.0 |
| 20260507030019 | 12 | 173 | 0.0 | 4.8 | 0.00 | 0.10 | 0.05 | 35 | 1012.0 |
| 20260507025518 | 12 | 137 | 1.6 | 4.8 | 0.00 | 0.10 | 0.05 | 35 | 1012.0 |
| 20260507025018 | 12 | 172 | 0.0 | 4.8 | 0.00 | 0.10 | 0.05 | 35 | 1012.0 |
| 20260507024521 | 12 | 130 | 0.0 | 4.8 | 0.03 | 0.10 | 0.05 | 35 | 1012.0 |
| 20260507024025 | 12 | 142 | 0.0 | 8.0 | 0.05 | 0.10 | 0.05 | 35 | 1012.0 |